Flag for U.S.A. Weather past 2 weeks in Bakersfield, California, U.S.A.

Now
64 °F

Clear.


Feels Like: 64 °F
Forecast: 57 / 86 °F
Wind: 5 mph from Northeast

Location: Meadows Field

Current Time: Mar 30, 2015 at 1:01:10 AM

Latest Report: Mar 29, 2015 at 11:54 PM


Visibility: 10 mi

Pressure: 30.01 "Hg

Humidity: 34%

Dew point: 35 °F

Location of BakersfieldLocation

Historic Weather in Bakersfield — Graph

°F

Bakersfield temperature yesterday

Maximum temperature yesterday: 86 °F (at 3:54 PM)
Minimum temperature yesterday: 62 °F (at 1:54 AM)
Average temperature yesterday: 72 °F

Past Weeks' High & Low Weather Summary

 TemperatureHumidityPressure
High93 °F (Mar 27, 3:54 PM)77% (Mar 23, 6:54 AM)30.27 "Hg (Mar 23, 6:54 AM)
Low47 °F (Mar 24, 6:54 AM)11% (Mar 15, 3:54 PM)29.91 "Hg (Mar 16, 5:54 PM)
Average67 °F45%30.07 "Hg
* Reported Mar 14 11:54 PM — Mar 29 11:54 PM, Bakersfield, Weather by CustomWeather, © 2015

Note: Actual official high and low records may vary slightly from our data, if they occured in-between our weather recording intervals... More about our weather records

Advertising

Bakersfield weather history for previous 24 hours

 ConditionsComfort  
Time TempWeatherWind HumidityBarometerVisibility
11:54 PM
Sun, Mar 29
64 °FClear.5 mph34%30.01 "Hg10 mi
10:54 PM69 °FClear.9 mph27%30.01 "Hg10 mi
9:54 PM67 °FClear.3 mph29%30.00 "Hg10 mi
8:54 PM70 °FClear.No wind25%29.99 "Hg10 mi
7:54 PM72 °FSunny.3 mph27%29.97 "Hg10 mi
6:54 PM81 °FSunny.8 mph17%29.96 "Hg10 mi
5:54 PM85 °FSunny.9 mph14%29.95 "Hg10 mi
4:54 PM86 °FSunny.9 mph15%29.95 "Hg10 mi
3:54 PM86 °FSunny.14 mph17%29.96 "Hg10 mi
2:54 PM85 °FSunny.8 mph20%29.98 "Hg10 mi
1:54 PM83 °FSunny.8 mph26%30.00 "Hg10 mi
12:54 PM81 °FSunny.6 mph26%30.03 "Hg10 mi
11:54 AM79 °FSunny.6 mph28%30.05 "Hg10 mi
10:54 AM75 °FSunny.3 mph30%30.07 "Hg10 mi
9:54 AM73 °FSunny.6 mph33%30.08 "Hg10 mi
8:54 AM69 °FSunny.5 mph41%30.08 "Hg10 mi
7:54 AM63 °FSunny.No wind50%30.08 "Hg10 mi
6:54 AM63 °FClear.7 mph50%30.07 "Hg10 mi
5:54 AM62 °FClear.5 mph52%30.06 "Hg10 mi
4:54 AM63 °FClear.No wind50%30.06 "Hg10 mi
3:54 AM63 °FClear.5 mph52%30.06 "Hg10 mi
2:54 AM62 °FClear.3 mph50%30.06 "Hg10 mi
1:54 AM62 °FClear.No wind50%30.07 "Hg10 mi
Weather by CustomWeather, © 2015

See weather overviewHow to use our weather pages